Location: Caracas
(10.5033°N, 66.8422°W)
Time: 18:41:48
(UTC-04:00)

Hubble Space Telescope - Visible Passes

Search period start: 20 November 2017 00:00
Search period end: 30 November 2017 00:00
Orbit: 537 x 541 km, 28.5° (Epoch: 20 November)

Date Brightness Start Highest point End Pass type
(mag) Time Alt. Az. Time Alt. Az. Time Alt. Az.
25 Nov 3.1 05:59:39 10° NNW 06:01:46 14° NNE 06:03:52 10° NE visible
26 Nov 2.9 05:48:59 10° NNW 05:51:40 17° NNE 05:54:22 10° ENE visible
27 Nov 2.6 05:38:28 10° NNW 05:41:34 21° NNE 05:44:44 10° ENE visible
28 Nov 2.3 05:28:57 16° NNW 05:31:26 27° NNE 05:34:57 10° E visible
28 Nov 3.1 19:09:07 10° S 19:10:35 12° SSE 19:11:39 11° SE visible
29 Nov 1.8 05:19:26 23° NNW 05:21:16 35° NNE 05:25:04 10° E visible
29 Nov 2.8 18:57:44 10° S 19:00:22 16° SSE 19:02:11 13° ESE visible
29 Nov 4.0 20:37:19 10° WSW 20:37:33 11° WSW 20:37:33 11° WSW visible
